Estación de Polizones INIA

Ultimos registro cada 15 minutos 45
Estación Fecha / Hora Temperatura Humedad Lluvia Velocidad Dirección Radiación Presion
45 Polizones INIA 09-05-2026 11:00 9 74,4 0 0 0 424 1014
44 Polizones INIA 09-05-2026 10:45 7,8 87,1 0 0 0 410 1014
43 Polizones INIA 09-05-2026 10:30 6,6 91,7 0 0 0 358 1014
42 Polizones INIA 09-05-2026 10:15 5,2 96,2 0 0 0 317 1014
41 Polizones INIA 09-05-2026 10:00 4 96,6 0 0 0 277 1014
40 Polizones INIA 09-05-2026 09:45 2,9 98 0 0 0 230 1014
39 Polizones INIA 09-05-2026 09:30 1,9 98,6 0 0 0 203 1014
38 Polizones INIA 09-05-2026 09:15 0,5 98,7 0,1 0 0 178 1015
37 Polizones INIA 09-05-2026 09:00 -0,6 98,3 0 0 0 112 1013
36 Polizones INIA 09-05-2026 08:45 -1,1 98,3 0 0 0 50 1013
35 Polizones INIA 09-05-2026 08:30 -1,4 97,9 0 0 0 18 1013
34 Polizones INIA 09-05-2026 08:15 -1,5 98 0 0 0 11 1013
33 Polizones INIA 09-05-2026 08:00 -1,4 98,1 0 0 0 6 1013
32 Polizones INIA 09-05-2026 07:45 -1,2 97,9 0 0 0 2 1013
31 Polizones INIA 09-05-2026 07:30 -0,8 97,7 0 0 0 0 1013
30 Polizones INIA 09-05-2026 07:15 -1,4 98 0 0 0 0 1013
29 Polizones INIA 09-05-2026 07:00 -1 97,4 0 0 0 0 1013
28 Polizones INIA 09-05-2026 06:45 -1 98 0 0 0 0 1013
27 Polizones INIA 09-05-2026 06:30 -1,3 98 0 0 0 0 1013
26 Polizones INIA 09-05-2026 06:15 -1,3 97,7 0 0 0 0 1013
25 Polizones INIA 09-05-2026 06:00 -1,2 97,7 0 0 0 0 1013
24 Polizones INIA 09-05-2026 05:45 -1,1 98 0 0 0 0 1013
23 Polizones INIA 09-05-2026 05:30 -1 97,8 0 0 0 0 1013
22 Polizones INIA 09-05-2026 05:15 -0,5 97,3 0 0 0 0 1013
21 Polizones INIA 09-05-2026 05:00 -0,4 98 0 0 0 0 1013
20 Polizones INIA 09-05-2026 04:45 -0,5 97,6 0 0 0 0 1013
19 Polizones INIA 09-05-2026 04:30 0 97,1 0 0 0 0 1013
18 Polizones INIA 09-05-2026 04:15 0,7 97,4 0 0 0 0 1013
17 Polizones INIA 09-05-2026 04:00 1 97,8 0 0 0 0 1014
16 Polizones INIA 09-05-2026 03:45 1 97,2 0 0 0 0 1014
15 Polizones INIA 09-05-2026 03:30 1,1 97,5 0 0 0 0 1014
14 Polizones INIA 09-05-2026 03:15 1,2 97,1 0 0 0 0 1014
13 Polizones INIA 09-05-2026 03:00 1,1 96,7 0 0 0 0 1014
12 Polizones INIA 09-05-2026 02:45 0,8 97,1 0 0 0 0 1014
11 Polizones INIA 09-05-2026 02:30 1,6 95,6 0 0 0 0 1014
10 Polizones INIA 09-05-2026 02:15 1,7 96,6 0 0 0 0 1014
9 Polizones INIA 09-05-2026 02:00 2 96,2 0 0 0 0 1014
8 Polizones INIA 09-05-2026 01:45 1,6 95,6 0 0 0 0 1014
7 Polizones INIA 09-05-2026 01:30 2,3 94,2 0 0 0 0 1014
6 Polizones INIA 09-05-2026 01:15 2,8 94,6 0 0 0 0 1014
5 Polizones INIA 09-05-2026 01:00 3,1 94,2 0 0 0 0 1014
4 Polizones INIA 09-05-2026 00:45 3,4 94 0 0 0 0 1014
3 Polizones INIA 09-05-2026 00:30 4 92,2 0 0 0 0 1014
2 Polizones INIA 09-05-2026 00:15 4,4 91,7 0 0 0 0 1014
1 Polizones INIA 09-05-2026 00:00 4,1 92,3 0 0 0 0 1014